Time,TemperatureF,DewpointF,PressureIn,WindDirection,WindDirectionDegrees,WindSpeedMPH,WindSpeedGustMPH,Humidity,HourlyPrecipIn,Conditions,Clouds,dailyrainin,SolarRadiationWatts/m^2,SoftwareType,DateUTC
2013-03-22 00:00:00,32.6,16.0,30.02,NE,34,0.0,0.1,50,0.00,CLR,,0.00,0.0,WeatherDisplay:10.37,2013-03-22 04:00:00,
2013-03-22 00:02:00,32.4,16.3,30.02,NE,42,0.0,0.0,51,0.00,CLR,,0.00,0.0,WeatherDisplay:10.37,2013-03-22 04:02:00,
2013-03-22 00:07:00,32.2,18.2,30.01,NNE,30,3.5,3.5,56,0.00,CLR,,0.00,0.0,WeatherDisplay:10.37,2013-03-22 04:07:00,
2013-03-22 00:12:00,32.1,18.2,30.01,East,84,5.8,5.8,56,0.00,CLR,,0.00,0.0,WeatherDisplay:10.37,2013-03-22 04:12:00,
2013-03-22 00:17:00,32.3,19.2,30.01,SSE,147,3.5,3.5,58,0.00,CLR,,0.00,0.0,WeatherDisplay:10.37,2013-03-22 04:17:00,
2013-03-22 00:22:00,32.0,16.3,30.02,SE,136,0.0,0.0,52,0.00,CLR,,0.00,0.0,WeatherDisplay:10.37,2013-03-22 04:22:00,
2013-03-22 00:27:00,31.7,16.1,30.02,NNE,31,2.3,2.3,52,0.00,CLR,,0.00,0.0,WeatherDisplay:10.37,2013-03-22 04:27:00,
2013-03-22 00:32:00,31.5,16.3,30.02,North,349,2.3,2.3,53,0.00,CLR,,0.00,0.0,WeatherDisplay:10.37,2013-03-22 04:32:00,
2013-03-22 00:37:00,31.5,17.6,30.02,North,11,8.0,8.0,56,0.00,CLR,,0.00,0.0,WeatherDisplay:10.37,2013-03-22 04:37:00,
2013-03-22 00:42:00,31.9,19.6,30.01,NE,36,5.8,5.8,60,0.00,CLR,,0.00,0.0,WeatherDisplay:10.37,2013-03-22 04:42:00,
2013-03-22 00:47:00,32.3,18.8,30.02,NE,45,1.1,0.0,57,0.00,CLR,,0.00,0.0,WeatherDisplay:10.37,2013-03-22 04:47:00,
2013-03-22 00:52:00,31.8,16.6,30.02,ESE,115,2.3,2.3,53,0.00,CLR,,0.00,0.0,WeatherDisplay:10.37,2013-03-22 04:52:00,
2013-03-22 00:57:00,31.3,15.7,30.02,ESE,119,0.0,0.0,52,0.00,CLR,,0.00,0.0,WeatherDisplay:10.37,2013-03-22 04:57:00,
2013-03-22 01:02:00,31.0,15.4,30.02,ENE,66,0.0,0.0,52,0.00,CLR,,0.00,0.0,WeatherDisplay:10.37,2013-03-22 05:02:00,
2013-03-22 01:07:00,30.9,15.3,30.02,NE,36,5.8,5.8,52,0.00,CLR,,0.00,0.0,WeatherDisplay:10.37,2013-03-22 05:07:00,
2013-03-22 01:12:00,31.1,17.6,30.02,ENE,61,4.6,4.6,57,0.00,CLR,,0.00,0.0,WeatherDisplay:10.37,2013-03-22 05:12:00,
2013-03-22 01:17:00,31.6,18.9,30.01,NNE,23,11.5,11.5,59,0.00,CLR,,0.00,0.0,WeatherDisplay:10.37,2013-03-22 05:17:00,
2013-03-22 01:22:00,32.0,20.1,30.02,ENE,67,6.9,6.9,61,0.00,CLR,,0.00,0.0,WeatherDisplay:10.37,2013-03-22 05:22:00,
2013-03-22 01:27:00,32.1,19.8,30.02,NE,36,0.0,0.0,60,0.00,CLR,,0.00,0.0,WeatherDisplay:10.37,2013-03-22 05:27:00,
2013-03-22 01:32:00,31.8,19.1,30.02,ENE,64,1.1,0.0,59,0.00,CLR,,0.00,0.0,WeatherDisplay:10.37,2013-03-22 05:32:00,
2013-03-22 01:37:00,31.6,19.3,30.02,ENE,68,8.1,8.1,60,0.00,CLR,,0.00,0.0,WeatherDisplay:10.37,2013-03-22 05:37:00,
2013-03-22 01:42:00,31.3,18.6,30.02,NE,40,5.8,5.8,59,0.00,CLR,,0.00,0.0,WeatherDisplay:10.37,2013-03-22 05:42:00,
2013-03-22 01:47:00,31.3,18.6,30.02,East,80,0.0,0.0,59,0.00,CLR,,0.00,0.0,WeatherDisplay:10.37,2013-03-22 05:47:00,
2013-03-22 01:52:00,31.2,16.9,30.03,NNE,29,0.0,0.0,55,0.00,CLR,,0.00,0.0,WeatherDisplay:10.37,2013-03-22 05:52:00,
2013-03-22 01:57:00,31.3,17.8,30.02,North,360,3.0,3.0,57,0.00,CLR,,0.00,0.0,WeatherDisplay:10.37,2013-03-22 05:57:00,
2013-03-22 02:02:00,31.4,17.9,30.03,NNE,22,9.2,9.2,57,0.00,CLR,,0.00,0.0,WeatherDisplay:10.37,2013-03-22 06:02:00,
2013-03-22 02:07:00,31.7,19.8,30.03,ENE,58,5.8,5.8,61,0.00,CLR,,0.00,0.0,WeatherDisplay:10.37,2013-03-22 06:07:00,
2013-03-22 02:12:00,31.7,18.6,30.03,ESE,103,4.6,4.6,58,0.00,CLR,,0.00,0.0,WeatherDisplay:10.37,2013-03-22 06:12:00,
2013-03-22 02:17:00,31.2,16.5,30.04,NE,53,5.8,5.8,54,0.00,CLR,,0.00,0.0,WeatherDisplay:10.37,2013-03-22 06:17:00,
2013-03-22 02:22:00,31.0,17.9,30.04,NE,34,3.5,3.5,58,0.00,CLR,,0.00,0.0,WeatherDisplay:10.37,2013-03-22 06:22:00,
2013-03-22 02:27:00,30.7,16.4,30.04,NNE,19,0.0,0.0,55,0.00,CLR,,0.00,0.0,WeatherDisplay:10.37,2013-03-22 06:27:00,
2013-03-22 02:32:00,30.6,17.6,30.03,NE,42,8.1,8.1,58,0.00,CLR,,0.00,0.0,WeatherDisplay:10.37,2013-03-22 06:32:00,
2013-03-22 02:37:00,30.6,18.0,30.03,NE,44,3.5,0.0,59,0.00,CLR,,0.00,0.0,WeatherDisplay:10.37,2013-03-22 06:37:00,
2013-03-22 02:42:00,30.4,16.6,30.03,NE,34,2.0,0.0,56,0.00,CLR,,0.00,0.0,WeatherDisplay:10.37,2013-03-22 06:42:00,
2013-03-22 02:47:00,30.3,16.5,30.03,NNE,22,4.0,4.0,56,0.00,CLR,,0.00,0.0,WeatherDisplay:10.37,2013-03-22 06:47:00,
2013-03-22 02:52:00,30.4,17.8,30.03,East,95,2.3,2.3,59,0.00,CLR,,0.00,0.0,WeatherDisplay:10.37,2013-03-22 06:52:00,
2013-03-22 02:57:00,30.3,17.3,30.03,East,95,0.0,0.0,58,0.00,CLR,,0.00,0.0,WeatherDisplay:10.37,2013-03-22 06:57:00,
2013-03-22 03:02:00,30.0,16.6,30.02,North,5,1.0,1.0,57,0.00,CLR,,0.00,0.0,WeatherDisplay:10.37,2013-03-22 07:02:00,
2013-03-22 03:07:00,29.9,16.9,30.02,ENE,61,0.0,0.0,58,0.00,CLR,,0.00,0.0,WeatherDisplay:10.37,2013-03-22 07:07:00,
2013-03-22 03:12:00,29.4,16.8,30.03,ENE,61,0.0,0.0,59,0.00,CLR,,0.00,0.0,WeatherDisplay:10.37,2013-03-22 07:12:00,
2013-03-22 03:17:00,29.2,16.2,30.03,ENE,61,0.0,0.0,58,0.00,CLR,,0.00,0.0,WeatherDisplay:10.37,2013-03-22 07:17:00,
2013-03-22 03:22:00,29.1,16.5,30.03,ENE,61,0.0,0.0,59,0.00,CLR,,0.00,0.0,WeatherDisplay:10.37,2013-03-22 07:22:00,
2013-03-22 03:27:00,28.9,16.0,30.03,ENE,61,0.0,0.0,58,0.00,CLR,,0.00,0.0,WeatherDisplay:10.37,2013-03-22 07:27:00,
2013-03-22 03:32:00,29.0,16.1,30.03,ENE,61,0.0,0.0,58,0.00,CLR,,0.00,0.0,WeatherDisplay:10.37,2013-03-22 07:32:00,
2013-03-22 03:37:00,28.9,15.6,30.03,ENE,61,0.0,0.0,57,0.00,CLR,,0.00,0.0,WeatherDisplay:10.37,2013-03-22 07:37:00,
2013-03-22 03:42:00,29.0,15.7,30.03,ENE,78,1.0,1.0,57,0.00,CLR,,0.00,0.0,WeatherDisplay:10.37,2013-03-22 07:42:00,
2013-03-22 03:47:00,29.0,15.2,30.04,ENE,78,0.0,0.0,56,0.00,CLR,,0.00,0.0,WeatherDisplay:10.37,2013-03-22 07:47:00,
2013-03-22 03:52:00,29.1,15.7,30.04,ENE,78,0.0,0.0,57,0.00,CLR,,0.00,0.0,WeatherDisplay:10.37,2013-03-22 07:52:00,
2013-03-22 03:57:00,29.1,16.5,30.04,ENE,78,0.0,0.0,59,0.00,CLR,,0.00,0.0,WeatherDisplay:10.37,2013-03-22 07:57:00,
2013-03-22 04:02:00,29.1,16.5,30.04,ENE,78,0.0,0.0,59,0.00,CLR,,0.00,0.0,WeatherDisplay:10.37,2013-03-22 08:02:00,
2013-03-22 04:07:00,29.1,16.5,30.04,ENE,78,0.0,0.0,59,0.00,CLR,,0.00,0.0,WeatherDisplay:10.37,2013-03-22 08:07:00,
2013-03-22 04:12:00,29.1,16.5,30.04,ENE,78,0.0,0.0,59,0.00,CLR,,0.00,0.0,WeatherDisplay:10.37,2013-03-22 08:12:00,
2013-03-22 04:17:00,29.1,16.5,30.04,ENE,78,0.0,0.0,59,0.00,CLR,,0.00,0.0,WeatherDisplay:10.37,2013-03-22 08:17:00,
2013-03-22 04:22:00,29.1,16.5,30.04,ENE,78,0.0,0.0,59,0.00,CLR,,0.00,0.0,WeatherDisplay:10.37,2013-03-22 08:22:00,
2013-03-22 04:27:00,29.1,16.5,30.04,ENE,78,0.0,0.0,59,0.00,CLR,,0.00,0.0,WeatherDisplay:10.37,2013-03-22 08:27:00,
2013-03-22 04:32:00,29.1,16.5,30.04,ENE,78,0.0,0.0,59,0.00,CLR,,0.00,0.0,WeatherDisplay:10.37,2013-03-22 08:32:00,
2013-03-22 04:37:00,29.1,16.5,30.04,ENE,78,0.0,0.0,59,0.00,CLR,,0.00,0.0,WeatherDisplay:10.37,2013-03-22 08:37:00,
2013-03-22 04:42:00,29.1,16.5,30.04,ENE,78,0.0,0.0,59,0.00,CLR,,0.00,0.0,WeatherDisplay:10.37,2013-03-22 08:42:00,
2013-03-22 04:47:00,29.1,16.5,30.04,ENE,78,0.0,0.0,59,0.00,CLR,,0.00,0.0,WeatherDisplay:10.37,2013-03-22 08:47:00,
2013-03-22 04:52:00,29.1,16.5,30.04,ENE,78,0.0,0.0,59,0.00,CLR,,0.00,0.0,WeatherDisplay:10.37,2013-03-22 08:52:00,
2013-03-22 04:57:00,29.1,16.5,30.04,ENE,78,0.0,0.0,59,0.00,CLR,,0.00,0.0,WeatherDisplay:10.37,2013-03-22 08:57:00,
2013-03-22 05:02:00,29.1,16.5,30.04,ENE,78,0.0,0.0,59,0.00,CLR,,0.00,0.0,WeatherDisplay:10.37,2013-03-22 09:02:00,
2013-03-22 05:07:00,29.1,16.5,30.04,ENE,78,0.0,0.0,59,0.00,CLR,,0.00,0.0,WeatherDisplay:10.37,2013-03-22 09:07:00,
2013-03-22 05:12:00,29.1,16.5,30.04,ENE,78,0.0,0.0,59,0.00,CLR,,0.00,0.0,WeatherDisplay:10.37,2013-03-22 09:12:00,
2013-03-22 05:17:00,29.1,16.5,30.04,ENE,78,0.0,0.0,59,0.00,CLR,,0.00,0.0,WeatherDisplay:10.37,2013-03-22 09:17:00,
2013-03-22 05:22:00,29.1,16.5,30.04,ENE,78,0.0,0.0,59,0.00,CLR,,0.00,0.0,WeatherDisplay:10.37,2013-03-22 09:22:00,
2013-03-22 05:27:00,29.1,16.5,30.04,ENE,78,0.0,0.0,59,0.00,CLR,,0.00,0.0,WeatherDisplay:10.37,2013-03-22 09:27:00,
2013-03-22 05:32:00,26.9,15.6,30.05,ENE,78,0.0,0.0,62,0.00,CLR,,0.00,0.0,WeatherDisplay:10.37,2013-03-22 09:32:00,
2013-03-22 05:37:00,26.8,15.5,30.06,ENE,78,0.0,0.0,62,0.00,CLR,,0.00,0.0,WeatherDisplay:10.37,2013-03-22 09:37:00,
2013-03-22 05:42:00,26.4,15.1,30.06,ENE,78,0.0,0.0,62,0.00,CLR,,0.00,0.0,WeatherDisplay:10.37,2013-03-22 09:42:00,
2013-03-22 05:47:00,26.2,14.9,30.07,ENE,78,0.0,0.0,62,0.00,CLR,,0.00,0.0,WeatherDisplay:10.37,2013-03-22 09:47:00,
2013-03-22 05:52:00,26.2,14.2,30.07,ENE,78,0.0,0.0,60,0.00,CLR,,0.00,0.0,WeatherDisplay:10.37,2013-03-22 09:52:00,
2013-03-22 05:57:00,26.0,15.1,30.07,ENE,78,0.0,0.0,63,0.00,CLR,,0.00,0.0,WeatherDisplay:10.37,2013-03-22 09:57:00,
2013-03-22 06:02:00,25.9,14.7,30.07,ENE,78,0.0,0.0,62,0.00,CLR,,0.00,0.0,WeatherDisplay:10.37,2013-03-22 10:02:00,
2013-03-22 06:07:00,25.8,15.3,30.07,ENE,78,0.0,0.0,64,0.00,CLR,,0.00,0.0,WeatherDisplay:10.37,2013-03-22 10:07:00,
2013-03-22 06:12:00,25.8,15.3,30.07,ENE,78,0.0,0.0,64,0.00,CLR,,0.00,0.0,WeatherDisplay:10.37,2013-03-22 10:12:00,
2013-03-22 06:18:00,25.9,15.7,30.08,ENE,78,0.0,0.0,65,0.00,CLR,,0.00,0.0,WeatherDisplay:10.37,2013-03-22 10:18:00,
2013-03-22 06:23:00,26.0,15.8,30.08,ENE,78,0.0,0.0,65,0.00,CLR,,0.00,0.0,WeatherDisplay:10.37,2013-03-22 10:23:00,
2013-03-22 06:28:00,26.0,16.2,30.07,ENE,78,0.0,0.0,66,0.00,CLR,,0.00,0.0,WeatherDisplay:10.37,2013-03-22 10:28:00,
2013-03-22 06:33:00,26.0,16.2,30.08,ENE,78,0.0,0.0,66,0.00,CLR,,0.00,0.0,WeatherDisplay:10.37,2013-03-22 10:33:00,
2013-03-22 06:38:00,25.7,15.2,30.08,ENE,78,0.0,0.0,64,0.00,CLR,,0.00,0.0,WeatherDisplay:10.37,2013-03-22 10:38:00,
2013-03-22 06:43:00,25.8,16.7,30.08,ENE,78,0.0,0.0,68,0.00,CLR,,0.00,0.0,WeatherDisplay:10.37,2013-03-22 10:43:00,
2013-03-22 06:48:00,25.8,16.7,30.09,ENE,78,0.0,0.0,68,0.00,CLR,,0.00,0.0,WeatherDisplay:10.37,2013-03-22 10:48:00,
2013-03-22 06:53:00,25.7,16.6,30.09,ENE,78,0.0,0.0,68,0.00,CLR,,0.00,0.0,WeatherDisplay:10.37,2013-03-22 10:53:00,
2013-03-22 06:58:00,25.6,16.2,30.09,ENE,78,0.0,0.0,67,0.00,CLR,,0.00,0.0,WeatherDisplay:10.37,2013-03-22 10:58:00,
2013-03-22 07:03:00,25.5,16.1,30.09,ENE,78,0.0,0.0,67,0.00,CLR,,0.00,0.0,WeatherDisplay:10.37,2013-03-22 11:03:00,
2013-03-22 07:08:00,25.4,16.3,30.09,ENE,78,0.0,0.0,68,0.00,CLR,,0.00,0.0,WeatherDisplay:10.37,2013-03-22 11:08:00,
2013-03-22 07:13:00,25.2,15.4,30.10,ENE,78,0.0,0.0,66,0.00,CLR,,0.00,0.0,WeatherDisplay:10.37,2013-03-22 11:13:00,
2013-03-22 07:18:00,25.1,15.7,30.10,ENE,78,0.0,0.0,67,0.00,CLR,,0.00,0.0,WeatherDisplay:10.37,2013-03-22 11:18:00,
2013-03-22 07:23:00,25.1,16.0,30.10,ENE,78,0.0,0.0,68,0.00,CLR,,0.00,0.0,WeatherDisplay:10.37,2013-03-22 11:23:00,
2013-03-22 07:28:00,25.1,16.4,30.10,ENE,78,0.0,0.0,69,0.00,CLR,,0.00,5.0,WeatherDisplay:10.37,2013-03-22 11:28:00,
2013-03-22 07:33:00,25.1,16.7,30.10,ENE,78,0.0,0.0,70,0.00,CLR,,0.00,5.0,WeatherDisplay:10.37,2013-03-22 11:33:00,
2013-03-22 07:38:00,25.1,16.7,30.10,ENE,78,0.0,0.0,70,0.00,CLR,,0.00,5.0,WeatherDisplay:10.37,2013-03-22 11:38:00,
2013-03-22 07:43:00,25.1,16.7,30.10,ENE,78,0.0,0.0,70,0.00,CLR,,0.00,5.0,WeatherDisplay:10.37,2013-03-22 11:43:00,
2013-03-22 07:48:00,25.1,16.7,30.10,ENE,78,0.0,0.0,70,0.00,CLR,,0.00,5.0,WeatherDisplay:10.37,2013-03-22 11:48:00,
2013-03-22 07:53:00,25.1,16.7,30.10,ENE,78,0.0,0.0,70,0.00,CLR,,0.00,5.0,WeatherDisplay:10.37,2013-03-22 11:53:00,
2013-03-22 07:58:00,25.1,16.7,30.10,ENE,78,0.0,0.0,70,0.00,CLR,,0.00,5.0,WeatherDisplay:10.37,2013-03-22 11:58:00,
2013-03-22 08:03:00,25.1,16.7,30.10,ENE,78,0.0,0.0,70,0.00,CLR,,0.00,5.0,WeatherDisplay:10.37,2013-03-22 12:03:00,
2013-03-22 08:08:00,25.1,16.7,30.10,ENE,78,0.0,0.0,70,0.00,CLR,,0.00,5.0,WeatherDisplay:10.37,2013-03-22 12:08:00,
2013-03-22 08:13:00,25.1,16.7,30.10,ENE,78,0.0,0.0,70,0.00,CLR,,0.00,5.0,WeatherDisplay:10.37,2013-03-22 12:13:00,
2013-03-22 08:18:00,25.1,16.7,30.10,ENE,78,0.0,0.0,70,0.00,CLR,,0.00,5.0,WeatherDisplay:10.37,2013-03-22 12:18:00,
2013-03-22 08:23:00,25.1,16.7,30.10,ENE,78,0.0,0.0,70,0.00,CLR,,0.00,5.0,WeatherDisplay:10.37,2013-03-22 12:23:00,
2013-03-22 08:28:00,25.1,16.7,30.10,ENE,78,0.0,0.0,70,0.00,CLR,,0.00,5.0,WeatherDisplay:10.37,2013-03-22 12:28:00,
2013-03-22 08:33:00,25.1,16.7,30.10,ENE,78,0.0,0.0,70,0.00,CLR,,0.00,5.0,WeatherDisplay:10.37,2013-03-22 12:33:00,
2013-03-22 08:38:00,25.1,16.7,30.10,ENE,78,0.0,0.0,70,0.00,CLR,,0.00,5.0,WeatherDisplay:10.37,2013-03-22 12:38:00,
2013-03-22 08:43:00,25.1,16.7,30.10,ENE,78,0.0,0.0,70,0.00,CLR,,0.00,5.0,WeatherDisplay:10.37,2013-03-22 12:43:00,
2013-03-22 08:48:00,25.1,16.7,30.10,ENE,78,0.0,0.0,70,0.00,CLR,,0.00,5.0,WeatherDisplay:10.37,2013-03-22 12:48:00,
2013-03-22 08:53:00,25.1,16.7,30.10,ENE,78,0.0,0.0,70,0.00,CLR,,0.00,5.0,WeatherDisplay:10.37,2013-03-22 12:53:00,
2013-03-22 08:58:00,25.1,16.7,30.10,ENE,78,0.0,0.0,70,0.00,CLR,,0.00,5.0,WeatherDisplay:10.37,2013-03-22 12:58:00,
2013-03-22 09:03:00,25.1,16.7,30.10,ENE,78,0.0,0.0,70,0.00,OVC,,0.00,5.0,WeatherDisplay:10.37,2013-03-22 13:03:00,
2013-03-22 09:08:00,25.1,16.7,30.10,ENE,78,0.0,0.0,70,0.00,OVC,,0.00,5.0,WeatherDisplay:10.37,2013-03-22 13:08:00,
2013-03-22 09:13:00,25.1,16.7,30.10,ENE,78,0.0,0.0,70,0.00,OVC,,0.00,5.0,WeatherDisplay:10.37,2013-03-22 13:13:00,
2013-03-22 09:18:00,25.1,16.7,30.10,ENE,78,0.0,0.0,70,0.00,OVC,,0.00,5.0,WeatherDisplay:10.37,2013-03-22 13:18:00,
2013-03-22 09:23:00,25.1,16.7,30.10,ENE,78,0.0,0.0,70,0.00,OVC,,0.00,5.0,WeatherDisplay:10.37,2013-03-22 13:23:00,
2013-03-22 09:28:00,25.1,16.7,30.10,ENE,78,0.0,0.0,70,0.00,OVC,,0.00,5.0,WeatherDisplay:10.37,2013-03-22 13:28:00,
2013-03-22 09:33:00,25.1,16.7,30.10,ENE,78,0.0,0.0,70,0.00,OVC,,0.00,5.0,WeatherDisplay:10.37,2013-03-22 13:33:00,
2013-03-22 09:38:00,25.1,16.7,30.10,ENE,78,0.0,0.0,70,0.00,OVC,,0.00,5.0,WeatherDisplay:10.37,2013-03-22 13:38:00,
2013-03-22 09:43:00,25.1,16.7,30.10,ENE,78,0.0,0.0,70,0.00,OVC,,0.00,5.0,WeatherDisplay:10.37,2013-03-22 13:43:00,
2013-03-22 09:48:00,25.1,16.7,30.10,ENE,78,0.0,0.0,70,0.00,OVC,,0.00,5.0,WeatherDisplay:10.37,2013-03-22 13:48:00,
2013-03-22 09:53:00,25.1,16.7,30.10,ENE,78,0.0,0.0,70,0.00,OVC,,0.00,5.0,WeatherDisplay:10.37,2013-03-22 13:53:00,
2013-03-22 09:58:00,25.1,16.7,30.10,ENE,78,0.0,0.0,70,0.00,OVC,,0.00,5.0,WeatherDisplay:10.37,2013-03-22 13:58:00,
2013-03-22 10:03:00,25.1,16.7,30.10,ENE,78,0.0,0.0,70,0.00,OVC,,0.00,5.0,WeatherDisplay:10.37,2013-03-22 14:03:00,
2013-03-22 10:08:00,25.1,16.7,30.10,ENE,78,0.0,0.0,70,0.00,OVC,,0.00,5.0,WeatherDisplay:10.37,2013-03-22 14:08:00,
2013-03-22 10:13:00,25.1,16.7,30.10,ENE,78,0.0,0.0,70,0.00,OVC,,0.00,5.0,WeatherDisplay:10.37,2013-03-22 14:13:00,
2013-03-22 10:18:00,25.1,16.7,30.10,ENE,78,0.0,0.0,70,0.00,OVC,,0.00,5.0,WeatherDisplay:10.37,2013-03-22 14:18:00,
2013-03-22 10:23:00,25.1,16.7,30.10,ENE,78,0.0,0.0,70,0.00,OVC,,0.00,5.0,WeatherDisplay:10.37,2013-03-22 14:23:00,
2013-03-22 10:28:00,25.1,16.7,30.10,ENE,78,0.0,0.0,70,0.00,OVC,,0.00,5.0,WeatherDisplay:10.37,2013-03-22 14:28:00,
2013-03-22 10:33:00,25.1,16.7,30.10,ENE,78,0.0,0.0,70,0.00,OVC,,0.00,5.0,WeatherDisplay:10.37,2013-03-22 14:33:00,
2013-03-22 10:38:00,25.1,16.7,30.10,ENE,78,0.0,0.0,70,0.00,OVC,,0.00,5.0,WeatherDisplay:10.37,2013-03-22 14:38:00,
2013-03-22 10:43:00,25.1,16.7,30.10,ENE,78,0.0,0.0,70,0.00,OVC,,0.00,5.0,WeatherDisplay:10.37,2013-03-22 14:43:00,
2013-03-22 10:48:00,25.1,16.7,30.10,ENE,78,0.0,0.0,70,0.00,OVC,,0.00,5.0,WeatherDisplay:10.37,2013-03-22 14:48:00,
2013-03-22 10:53:00,25.1,16.7,30.10,ENE,78,0.0,0.0,70,0.00,OVC,,0.00,5.0,WeatherDisplay:10.37,2013-03-22 14:53:00,
2013-03-22 10:58:00,25.1,16.7,30.10,ENE,78,0.0,0.0,70,0.00,OVC,,0.00,5.0,WeatherDisplay:10.37,2013-03-22 14:58:00,
2013-03-22 11:03:00,25.1,16.7,30.10,ENE,78,0.0,0.0,70,0.00,OVC,,0.00,5.0,WeatherDisplay:10.37,2013-03-22 15:03:00,
2013-03-22 11:08:00,25.1,16.7,30.10,ENE,78,0.0,0.0,70,0.00,OVC,,0.00,5.0,WeatherDisplay:10.37,2013-03-22 15:08:00,
2013-03-22 11:13:00,25.1,16.7,30.10,ENE,78,0.0,0.0,70,0.00,OVC,,0.00,5.0,WeatherDisplay:10.37,2013-03-22 15:13:00,
2013-03-22 11:18:00,25.1,16.7,30.10,ENE,78,0.0,0.0,70,0.00,OVC,,0.00,5.0,WeatherDisplay:10.37,2013-03-22 15:18:00,
2013-03-22 11:23:00,25.1,16.7,30.10,ENE,78,0.0,0.0,70,0.00,OVC,,0.00,5.0,WeatherDisplay:10.37,2013-03-22 15:23:00,
2013-03-22 11:28:00,25.1,16.7,30.10,ENE,78,0.0,0.0,70,0.00,OVC,,0.00,5.0,WeatherDisplay:10.37,2013-03-22 15:28:00,
2013-03-22 11:33:00,25.1,16.7,30.10,ENE,78,0.0,0.0,70,0.00,OVC,,0.00,5.0,WeatherDisplay:10.37,2013-03-22 15:33:00,
2013-03-22 11:38:00,25.1,16.7,30.10,ENE,78,0.0,0.0,70,0.00,OVC,,0.00,5.0,WeatherDisplay:10.37,2013-03-22 15:38:00,
2013-03-22 11:43:00,25.1,16.7,30.10,ENE,78,0.0,0.0,70,0.00,OVC,,0.00,5.0,WeatherDisplay:10.37,2013-03-22 15:43:00,
2013-03-22 11:48:00,25.1,16.7,30.10,ENE,78,0.0,0.0,70,0.00,OVC,,0.00,5.0,WeatherDisplay:10.37,2013-03-22 15:48:00,
2013-03-22 11:53:00,25.1,16.7,30.10,ENE,78,0.0,0.0,70,0.00,OVC,,0.00,5.0,WeatherDisplay:10.37,2013-03-22 15:53:00,
2013-03-22 11:58:00,25.1,16.7,30.10,ENE,78,0.0,0.0,70,0.00,OVC,,0.00,5.0,WeatherDisplay:10.37,2013-03-22 15:58:00,
2013-03-22 12:03:00,25.1,16.7,30.10,ENE,78,0.0,0.0,70,0.00,OVC,,0.00,5.0,WeatherDisplay:10.37,2013-03-22 16:03:00,
2013-03-22 12:08:00,25.1,16.7,30.10,ENE,78,0.0,0.0,70,0.00,OVC,,0.00,5.0,WeatherDisplay:10.37,2013-03-22 16:08:00,
2013-03-22 12:13:00,25.1,16.7,30.10,ENE,78,0.0,0.0,70,0.00,OVC,,0.00,5.0,WeatherDisplay:10.37,2013-03-22 16:13:00,
2013-03-22 12:18:00,25.1,16.7,30.10,ENE,78,0.0,0.0,70,0.00,OVC,,0.00,5.0,WeatherDisplay:10.37,2013-03-22 16:18:00,
2013-03-22 12:23:00,25.1,16.7,30.10,ENE,78,0.0,0.0,70,0.00,OVC,,0.00,5.0,WeatherDisplay:10.37,2013-03-22 16:23:00,
2013-03-22 12:28:00,25.1,16.7,30.10,ENE,78,0.0,0.0,70,0.00,CLR,,0.00,5.0,WeatherDisplay:10.37,2013-03-22 16:28:00,
2013-03-22 12:33:00,25.1,16.7,30.10,ENE,78,0.0,0.0,70,0.00,BKN,,0.00,5.0,WeatherDisplay:10.37,2013-03-22 16:33:00,
2013-03-22 12:38:00,25.1,16.7,30.10,ENE,78,0.0,0.0,70,0.00,BKN,,0.00,5.0,WeatherDisplay:10.37,2013-03-22 16:38:00,
2013-03-22 12:43:00,25.1,16.7,30.10,ENE,78,0.0,0.0,70,0.00,BKN,,0.00,5.0,WeatherDisplay:10.37,2013-03-22 16:43:00,
2013-03-22 12:48:00,25.1,16.7,30.10,ENE,78,0.0,0.0,70,0.00,BKN,,0.00,5.0,WeatherDisplay:10.37,2013-03-22 16:48:00,
2013-03-22 12:53:00,25.1,16.7,30.10,ENE,78,0.0,0.0,70,0.00,BKN,,0.00,5.0,WeatherDisplay:10.37,2013-03-22 16:53:00,
2013-03-22 12:58:00,25.1,16.7,30.10,ENE,78,0.0,0.0,70,0.00,BKN,,0.00,5.0,WeatherDisplay:10.37,2013-03-22 16:58:00,
2013-03-22 13:03:00,25.1,16.7,30.10,ENE,78,0.0,0.0,70,0.00,BKN,,0.00,5.0,WeatherDisplay:10.37,2013-03-22 17:03:00,
2013-03-22 13:08:00,25.1,16.7,30.10,ENE,78,0.0,0.0,70,0.00,OVC,,0.00,5.0,WeatherDisplay:10.37,2013-03-22 17:08:00,
2013-03-22 13:13:00,25.1,16.7,30.10,ENE,78,0.0,0.0,70,0.00,OVC,,0.00,5.0,WeatherDisplay:10.37,2013-03-22 17:13:00,
2013-03-22 13:18:00,25.1,16.7,30.10,ENE,78,0.0,0.0,70,0.00,OVC,,0.00,5.0,WeatherDisplay:10.37,2013-03-22 17:18:00,
2013-03-22 13:23:00,25.1,16.7,30.10,ENE,78,0.0,0.0,70,0.00,OVC,,0.00,5.0,WeatherDisplay:10.37,2013-03-22 17:23:00,
2013-03-22 13:28:00,25.1,16.7,30.10,ENE,78,0.0,0.0,70,0.00,OVC,,0.00,5.0,WeatherDisplay:10.37,2013-03-22 17:28:00,
2013-03-22 13:33:00,25.1,16.7,30.10,ENE,78,0.0,0.0,70,0.00,OVC,,0.00,5.0,WeatherDisplay:10.37,2013-03-22 17:33:00,
2013-03-22 13:38:00,25.1,16.7,30.10,ENE,78,0.0,0.0,70,0.00,OVC,,0.00,5.0,WeatherDisplay:10.37,2013-03-22 17:38:00,
2013-03-22 13:43:00,25.1,16.7,30.10,ENE,78,0.0,0.0,70,0.00,OVC,,0.00,5.0,WeatherDisplay:10.37,2013-03-22 17:43:00,
2013-03-22 13:48:00,25.1,16.7,30.10,ENE,78,0.0,0.0,70,0.00,OVC,,0.00,5.0,WeatherDisplay:10.37,2013-03-22 17:48:00,
2013-03-22 13:53:00,25.1,16.7,30.10,ENE,78,0.0,0.0,70,0.00,OVC,,0.00,5.0,WeatherDisplay:10.37,2013-03-22 17:53:00,
2013-03-22 13:58:00,25.1,16.7,30.10,ENE,78,0.0,0.0,70,0.00,OVC,,0.00,5.0,WeatherDisplay:10.37,2013-03-22 17:58:00,
2013-03-22 14:03:00,25.1,16.7,30.10,ENE,78,0.0,0.0,70,0.00,OVC,,0.00,5.0,WeatherDisplay:10.37,2013-03-22 18:03:00,
2013-03-22 14:08:00,25.1,16.7,30.10,ENE,78,0.0,0.0,70,0.00,OVC,,0.00,5.0,WeatherDisplay:10.37,2013-03-22 18:08:00,
2013-03-22 14:13:00,25.1,16.7,30.10,ENE,78,0.0,0.0,70,0.00,OVC,,0.00,5.0,WeatherDisplay:10.37,2013-03-22 18:13:00,
2013-03-22 14:18:00,25.1,16.7,30.10,ENE,78,0.0,0.0,70,0.00,OVC,,0.00,5.0,WeatherDisplay:10.37,2013-03-22 18:18:00,
2013-03-22 14:23:00,25.1,16.7,30.10,ENE,78,0.0,0.0,70,0.00,OVC,,0.00,5.0,WeatherDisplay:10.37,2013-03-22 18:23:00,
2013-03-22 14:28:00,25.1,16.7,30.10,ENE,78,0.0,0.0,70,0.00,OVC,,0.00,5.0,WeatherDisplay:10.37,2013-03-22 18:28:00,
2013-03-22 14:33:00,25.1,16.7,30.10,ENE,78,0.0,0.0,70,0.00,OVC,,0.00,5.0,WeatherDisplay:10.37,2013-03-22 18:33:00,
2013-03-22 14:38:00,25.1,16.7,30.10,ENE,78,0.0,0.0,70,0.00,OVC,,0.00,5.0,WeatherDisplay:10.37,2013-03-22 18:38:00,
2013-03-22 14:43:00,25.1,16.7,30.10,ENE,78,0.0,0.0,70,0.00,OVC,,0.00,5.0,WeatherDisplay:10.37,2013-03-22 18:43:00,
2013-03-22 14:48:00,25.1,16.7,30.10,ENE,78,0.0,0.0,70,0.00,OVC,,0.00,5.0,WeatherDisplay:10.37,2013-03-22 18:48:00,
2013-03-22 14:53:00,25.1,16.7,30.10,ENE,78,0.0,0.0,70,0.00,OVC,,0.00,5.0,WeatherDisplay:10.37,2013-03-22 18:53:00,
2013-03-22 14:58:00,25.1,16.7,30.10,ENE,78,0.0,0.0,70,0.00,OVC,,0.00,5.0,WeatherDisplay:10.37,2013-03-22 18:58:00,
2013-03-22 15:03:00,25.1,16.7,30.10,ENE,78,0.0,0.0,70,0.00,OVC,,0.00,5.0,WeatherDisplay:10.37,2013-03-22 19:03:00,
2013-03-22 15:08:00,25.1,16.7,30.10,ENE,78,0.0,0.0,70,0.00,OVC,,0.00,5.0,WeatherDisplay:10.37,2013-03-22 19:08:00,
2013-03-22 15:13:00,25.1,16.7,30.10,ENE,78,0.0,0.0,70,0.00,OVC,,0.00,5.0,WeatherDisplay:10.37,2013-03-22 19:13:00,
2013-03-22 15:18:00,25.1,16.7,30.10,ENE,78,0.0,0.0,70,0.00,OVC,,0.00,5.0,WeatherDisplay:10.37,2013-03-22 19:18:00,
2013-03-22 15:23:00,25.1,16.7,30.10,ENE,78,0.0,0.0,70,0.00,OVC,,0.00,5.0,WeatherDisplay:10.37,2013-03-22 19:23:00,
2013-03-22 15:28:00,25.1,16.7,30.10,ENE,78,0.0,0.0,70,0.00,OVC,,0.00,5.0,WeatherDisplay:10.37,2013-03-22 19:28:00,
2013-03-22 15:33:00,25.1,16.7,30.10,ENE,78,0.0,0.0,70,0.00,OVC,,0.00,5.0,WeatherDisplay:10.37,2013-03-22 19:33:00,
2013-03-22 15:38:00,25.1,16.7,30.10,ENE,78,0.0,0.0,70,0.00,OVC,,0.00,5.0,WeatherDisplay:10.37,2013-03-22 19:38:00,
2013-03-22 15:43:00,25.1,16.7,30.10,ENE,78,0.0,0.0,70,0.00,OVC,,0.00,5.0,WeatherDisplay:10.37,2013-03-22 19:43:00,
2013-03-22 15:48:00,25.1,16.7,30.10,ENE,78,0.0,0.0,70,0.00,OVC,,0.00,5.0,WeatherDisplay:10.37,2013-03-22 19:48:00,
2013-03-22 15:53:00,25.1,16.7,30.10,ENE,78,0.0,0.0,70,0.00,OVC,,0.00,5.0,WeatherDisplay:10.37,2013-03-22 19:53:00,
2013-03-22 15:58:00,25.1,16.7,30.10,ENE,78,0.0,0.0,70,0.00,OVC,,0.00,5.0,WeatherDisplay:10.37,2013-03-22 19:58:00,
2013-03-22 16:03:00,25.1,16.7,30.10,ENE,78,0.0,0.0,70,0.00,OVC,,0.00,5.0,WeatherDisplay:10.37,2013-03-22 20:03:00,
2013-03-22 16:08:00,25.1,16.7,30.10,ENE,78,0.0,0.0,70,0.00,OVC,,0.00,5.0,WeatherDisplay:10.37,2013-03-22 20:08:00,
2013-03-22 16:13:00,25.1,16.7,30.10,ENE,78,0.0,0.0,70,0.00,OVC,,0.00,5.0,WeatherDisplay:10.37,2013-03-22 20:13:00,
2013-03-22 16:18:00,25.1,16.7,30.10,ENE,78,0.0,0.0,70,0.00,OVC,,0.00,5.0,WeatherDisplay:10.37,2013-03-22 20:18:00,
2013-03-22 16:23:00,25.1,16.7,30.10,ENE,78,0.0,0.0,70,0.00,OVC,,0.00,5.0,WeatherDisplay:10.37,2013-03-22 20:23:00,
2013-03-22 16:28:00,25.1,16.7,30.10,ENE,78,0.0,0.0,70,0.00,OVC,,0.00,5.0,WeatherDisplay:10.37,2013-03-22 20:28:00,
2013-03-22 16:33:00,25.1,16.7,30.10,ENE,78,0.0,0.0,70,0.00,OVC,,0.00,5.0,WeatherDisplay:10.37,2013-03-22 20:33:00,
2013-03-22 16:38:00,25.1,16.7,30.10,ENE,78,0.0,0.0,70,0.00,OVC,,0.00,5.0,WeatherDisplay:10.37,2013-03-22 20:38:00,
2013-03-22 16:43:00,25.1,16.7,30.10,ENE,78,0.0,0.0,70,0.00,OVC,,0.00,5.0,WeatherDisplay:10.37,2013-03-22 20:43:00,
2013-03-22 16:48:00,25.1,16.7,30.10,ENE,78,0.0,0.0,70,0.00,OVC,,0.00,5.0,WeatherDisplay:10.37,2013-03-22 20:48:00,
2013-03-22 16:53:00,25.1,16.7,30.10,ENE,78,0.0,0.0,70,0.00,OVC,,0.00,5.0,WeatherDisplay:10.37,2013-03-22 20:53:00,
2013-03-22 16:58:00,25.1,16.7,30.10,ENE,78,0.0,0.0,70,0.00,OVC,,0.00,5.0,WeatherDisplay:10.37,2013-03-22 20:58:00,
2013-03-22 17:03:00,25.1,16.7,30.10,ENE,78,0.0,0.0,70,0.00,OVC,,0.00,5.0,WeatherDisplay:10.37,2013-03-22 21:03:00,
2013-03-22 17:08:00,25.1,16.7,30.10,ENE,78,0.0,0.0,70,0.00,OVC,,0.00,5.0,WeatherDisplay:10.37,2013-03-22 21:08:00,
2013-03-22 17:13:00,25.1,16.7,30.10,ENE,78,0.0,0.0,70,0.00,OVC,,0.00,5.0,WeatherDisplay:10.37,2013-03-22 21:13:00,
2013-03-22 17:18:00,25.1,16.7,30.10,ENE,78,0.0,0.0,70,0.00,OVC,,0.00,5.0,WeatherDisplay:10.37,2013-03-22 21:18:00,
2013-03-22 17:23:00,25.1,16.7,30.10,ENE,78,0.0,0.0,70,0.00,OVC,,0.00,5.0,WeatherDisplay:10.37,2013-03-22 21:23:00,
2013-03-22 17:28:00,25.1,16.7,30.10,ENE,78,0.0,0.0,70,0.00,OVC,,0.00,5.0,WeatherDisplay:10.37,2013-03-22 21:28:00,
2013-03-22 17:33:00,25.1,16.7,30.10,ENE,78,0.0,0.0,70,0.00,OVC,,0.00,5.0,WeatherDisplay:10.37,2013-03-22 21:33:00,
2013-03-22 17:38:00,25.1,16.7,30.10,ENE,78,0.0,0.0,70,0.00,OVC,,0.00,5.0,WeatherDisplay:10.37,2013-03-22 21:38:00,
2013-03-22 17:43:00,25.1,16.7,30.10,ENE,78,0.0,0.0,70,0.00,OVC,,0.00,5.0,WeatherDisplay:10.37,2013-03-22 21:43:00,
2013-03-22 17:48:00,25.1,16.7,30.10,ENE,78,0.0,0.0,70,0.00,OVC,,0.00,5.0,WeatherDisplay:10.37,2013-03-22 21:48:00,
2013-03-22 17:53:00,25.1,16.7,30.10,ENE,78,0.0,0.0,70,0.00,OVC,,0.00,5.0,WeatherDisplay:10.37,2013-03-22 21:53:00,
2013-03-22 17:58:00,25.1,16.7,30.10,ENE,78,0.0,0.0,70,0.00,OVC,,0.00,5.0,WeatherDisplay:10.37,2013-03-22 21:58:00,
2013-03-22 18:03:00,25.1,16.7,30.10,ENE,78,0.0,0.0,70,0.00,CLR,,0.00,5.0,WeatherDisplay:10.37,2013-03-22 22:03:00,
2013-03-22 18:08:00,25.1,16.7,30.10,ENE,78,0.0,0.0,70,0.00,CLR,,0.00,5.0,WeatherDisplay:10.37,2013-03-22 22:08:00,
2013-03-22 18:13:00,25.1,16.7,30.10,ENE,78,0.0,0.0,70,0.00,CLR,,0.00,5.0,WeatherDisplay:10.37,2013-03-22 22:13:00,
2013-03-22 18:18:00,25.1,16.7,30.10,ENE,78,0.0,0.0,70,0.00,CLR,,0.00,5.0,WeatherDisplay:10.37,2013-03-22 22:18:00,
2013-03-22 18:23:00,25.1,16.7,30.10,ENE,78,0.0,0.0,70,0.00,CLR,,0.00,5.0,WeatherDisplay:10.37,2013-03-22 22:23:00,
2013-03-22 18:28:00,25.1,16.7,30.10,ENE,78,0.0,0.0,70,0.00,CLR,,0.00,5.0,WeatherDisplay:10.37,2013-03-22 22:28:00,
2013-03-22 18:33:00,25.1,16.7,30.10,ENE,78,0.0,0.0,70,0.00,CLR,,0.00,5.0,WeatherDisplay:10.37,2013-03-22 22:33:00,
2013-03-22 18:38:00,25.1,16.7,30.10,ENE,78,0.0,0.0,70,0.00,CLR,,0.00,5.0,WeatherDisplay:10.37,2013-03-22 22:38:00,
2013-03-22 18:44:00,25.1,16.7,30.10,ENE,78,0.0,0.0,70,0.00,CLR,,0.00,5.0,WeatherDisplay:10.37,2013-03-22 22:44:00,
2013-03-22 18:49:00,25.1,16.7,30.10,ENE,78,0.0,0.0,70,0.00,CLR,,0.00,5.0,WeatherDisplay:10.37,2013-03-22 22:49:00,
2013-03-22 18:54:00,25.1,16.7,30.10,ENE,78,0.0,0.0,70,0.00,CLR,,0.00,5.0,WeatherDisplay:10.37,2013-03-22 22:54:00,
2013-03-22 18:59:00,25.1,16.7,30.10,ENE,78,0.0,0.0,70,0.00,CLR,,0.00,5.0,WeatherDisplay:10.37,2013-03-22 22:59:00,
2013-03-22 19:04:00,25.1,16.7,30.10,ENE,78,0.0,0.0,70,0.00,CLR,,0.00,5.0,WeatherDisplay:10.37,2013-03-22 23:04:00,
2013-03-22 19:09:00,25.1,16.7,30.10,ENE,78,0.0,0.0,70,0.00,CLR,,0.00,5.0,WeatherDisplay:10.37,2013-03-22 23:09:00,
2013-03-22 19:14:00,25.1,16.7,30.10,ENE,78,0.0,0.0,70,0.00,CLR,,0.00,5.0,WeatherDisplay:10.37,2013-03-22 23:14:00,
2013-03-22 19:19:00,25.1,16.7,30.10,ENE,78,0.0,0.0,70,0.00,CLR,,0.00,5.0,WeatherDisplay:10.37,2013-03-22 23:19:00,
2013-03-22 19:24:00,25.1,16.7,30.10,ENE,78,0.0,0.0,70,0.00,CLR,,0.00,5.0,WeatherDisplay:10.37,2013-03-22 23:24:00,
2013-03-22 19:29:00,25.1,16.7,30.10,ENE,78,0.0,0.0,70,0.00,CLR,,0.00,5.0,WeatherDisplay:10.37,2013-03-22 23:29:00,
2013-03-22 19:34:00,25.1,16.7,30.10,ENE,78,0.0,0.0,70,0.00,CLR,,0.00,5.0,WeatherDisplay:10.37,2013-03-22 23:34:00,
2013-03-22 19:39:00,25.1,16.7,30.10,ENE,78,0.0,0.0,70,0.00,CLR,,0.00,5.0,WeatherDisplay:10.37,2013-03-22 23:39:00,
2013-03-22 19:44:00,25.1,16.7,30.10,ENE,78,0.0,0.0,70,0.00,CLR,,0.00,5.0,WeatherDisplay:10.37,2013-03-22 23:44:00,
2013-03-22 19:49:00,25.1,16.7,30.10,ENE,78,0.0,0.0,70,0.00,CLR,,0.00,5.0,WeatherDisplay:10.37,2013-03-22 23:49:00,
2013-03-22 19:54:00,25.1,16.7,30.10,ENE,78,0.0,0.0,70,0.00,CLR,,0.00,5.0,WeatherDisplay:10.37,2013-03-22 23:54:00,
2013-03-22 19:59:00,25.1,16.7,30.10,ENE,78,0.0,0.0,70,0.00,CLR,,0.00,5.0,WeatherDisplay:10.37,2013-03-22 23:59:00,
2013-03-22 20:04:00,25.1,16.7,30.10,ENE,78,0.0,0.0,70,0.00,CLR,,0.00,0.0,WeatherDisplay:10.37,2013-03-23 00:04:00,
2013-03-22 20:09:00,25.1,16.7,30.10,ENE,78,0.0,0.0,70,0.00,CLR,,0.00,0.0,WeatherDisplay:10.37,2013-03-23 00:09:00,
2013-03-22 20:14:00,25.1,16.7,30.10,ENE,78,0.0,0.0,70,0.00,CLR,,0.00,0.0,WeatherDisplay:10.37,2013-03-23 00:14:00,
2013-03-22 20:19:00,25.1,16.7,30.10,ENE,78,0.0,0.0,70,0.00,CLR,,0.00,0.0,WeatherDisplay:10.37,2013-03-23 00:19:00,
2013-03-22 20:24:00,25.1,16.7,30.10,ENE,78,0.0,0.0,70,0.00,CLR,,0.00,0.0,WeatherDisplay:10.37,2013-03-23 00:24:00,
2013-03-22 20:29:00,25.1,16.7,30.10,ENE,78,0.0,0.0,70,0.00,CLR,,0.00,0.0,WeatherDisplay:10.37,2013-03-23 00:29:00,
2013-03-22 20:34:00,25.1,16.7,30.10,ENE,78,0.0,0.0,70,0.00,CLR,,0.00,0.0,WeatherDisplay:10.37,2013-03-23 00:34:00,
2013-03-22 20:39:00,25.1,16.7,30.10,ENE,78,0.0,0.0,70,0.00,CLR,,0.00,0.0,WeatherDisplay:10.37,2013-03-23 00:39:00,
2013-03-22 20:44:00,25.1,16.7,30.10,ENE,78,0.0,0.0,70,0.00,CLR,,0.00,0.0,WeatherDisplay:10.37,2013-03-23 00:44:00,
2013-03-22 20:49:00,25.1,16.7,30.10,ENE,78,0.0,0.0,70,0.00,CLR,,0.00,0.0,WeatherDisplay:10.37,2013-03-23 00:49:00,
2013-03-22 20:54:00,25.1,16.7,30.10,ENE,78,0.0,0.0,70,0.00,CLR,,0.00,0.0,WeatherDisplay:10.37,2013-03-23 00:54:00,
2013-03-22 20:59:00,25.1,16.7,30.10,ENE,78,0.0,0.0,70,0.00,CLR,,0.00,0.0,WeatherDisplay:10.37,2013-03-23 00:59:00,
2013-03-22 21:04:00,25.1,16.7,30.10,ENE,78,0.0,0.0,70,0.00,CLR,,0.00,0.0,WeatherDisplay:10.37,2013-03-23 01:04:00,
2013-03-22 21:09:00,25.1,16.7,30.10,ENE,78,0.0,0.0,70,0.00,CLR,,0.00,0.0,WeatherDisplay:10.37,2013-03-23 01:09:00,
2013-03-22 21:14:00,25.1,16.7,30.10,ENE,78,0.0,0.0,70,0.00,CLR,,0.00,0.0,WeatherDisplay:10.37,2013-03-23 01:14:00,
2013-03-22 21:19:00,25.1,16.7,30.10,ENE,78,0.0,0.0,70,0.00,CLR,,0.00,0.0,WeatherDisplay:10.37,2013-03-23 01:19:00,
2013-03-22 21:24:00,25.1,16.7,30.10,ENE,78,0.0,0.0,70,0.00,CLR,,0.00,0.0,WeatherDisplay:10.37,2013-03-23 01:24:00,
2013-03-22 21:29:00,25.1,16.7,30.10,ENE,78,0.0,0.0,70,0.00,CLR,,0.00,0.0,WeatherDisplay:10.37,2013-03-23 01:29:00,
2013-03-22 21:34:00,25.1,16.7,30.10,ENE,78,0.0,0.0,70,0.00,CLR,,0.00,0.0,WeatherDisplay:10.37,2013-03-23 01:34:00,
2013-03-22 21:39:00,25.1,16.7,30.10,ENE,78,0.0,0.0,70,0.00,CLR,,0.00,0.0,WeatherDisplay:10.37,2013-03-23 01:39:00,
2013-03-22 21:44:00,25.1,16.7,30.10,ENE,78,0.0,0.0,70,0.00,CLR,,0.00,0.0,WeatherDisplay:10.37,2013-03-23 01:44:00,
2013-03-22 21:49:00,25.1,16.7,30.10,ENE,78,0.0,0.0,70,0.00,CLR,,0.00,0.0,WeatherDisplay:10.37,2013-03-23 01:49:00,
2013-03-22 21:54:00,25.1,16.7,30.10,ENE,78,0.0,0.0,70,0.00,CLR,,0.00,0.0,WeatherDisplay:10.37,2013-03-23 01:54:00,
2013-03-22 21:59:00,25.1,16.7,30.10,ENE,78,0.0,0.0,70,0.00,CLR,,0.00,0.0,WeatherDisplay:10.37,2013-03-23 01:59:00,
2013-03-22 22:04:00,25.1,16.7,30.10,ENE,78,0.0,0.0,70,0.00,CLR,,0.00,0.0,WeatherDisplay:10.37,2013-03-23 02:04:00,
2013-03-22 22:09:00,25.1,16.7,30.10,ENE,78,0.0,0.0,70,0.00,CLR,,0.00,0.0,WeatherDisplay:10.37,2013-03-23 02:09:00,
2013-03-22 22:14:00,25.1,16.7,30.10,ENE,78,0.0,0.0,70,0.00,CLR,,0.00,0.0,WeatherDisplay:10.37,2013-03-23 02:14:00,
2013-03-22 22:19:00,25.1,16.7,30.10,ENE,78,0.0,0.0,70,0.00,CLR,,0.00,0.0,WeatherDisplay:10.37,2013-03-23 02:19:00,
2013-03-22 22:24:00,25.1,16.7,30.10,ENE,78,0.0,0.0,70,0.00,CLR,,0.00,0.0,WeatherDisplay:10.37,2013-03-23 02:24:00,
2013-03-22 22:29:00,25.1,16.7,30.10,ENE,78,0.0,0.0,70,0.00,CLR,,0.00,0.0,WeatherDisplay:10.37,2013-03-23 02:29:00,
2013-03-22 22:34:00,25.1,16.7,30.10,ENE,78,0.0,0.0,70,0.00,CLR,,0.00,0.0,WeatherDisplay:10.37,2013-03-23 02:34:00,
2013-03-22 22:39:00,25.1,16.7,30.10,ENE,78,0.0,0.0,70,0.00,CLR,,0.00,0.0,WeatherDisplay:10.37,2013-03-23 02:39:00,
2013-03-22 22:44:00,25.1,16.7,30.10,ENE,78,0.0,0.0,70,0.00,CLR,,0.00,0.0,WeatherDisplay:10.37,2013-03-23 02:44:00,
2013-03-22 22:49:00,25.1,16.7,30.10,ENE,78,0.0,0.0,70,0.00,CLR,,0.00,0.0,WeatherDisplay:10.37,2013-03-23 02:49:00,
2013-03-22 22:54:00,25.1,16.7,30.10,ENE,78,0.0,0.0,70,0.00,CLR,,0.00,0.0,WeatherDisplay:10.37,2013-03-23 02:54:00,
2013-03-22 22:59:00,25.1,16.7,30.10,ENE,78,0.0,0.0,70,0.00,CLR,,0.00,0.0,WeatherDisplay:10.37,2013-03-23 02:59:00,
2013-03-22 23:04:00,25.1,16.7,30.10,ENE,78,0.0,0.0,70,0.00,CLR,,0.00,0.0,WeatherDisplay:10.37,2013-03-23 03:04:00,
2013-03-22 23:09:00,25.1,16.7,30.10,ENE,78,0.0,0.0,70,0.00,CLR,,0.00,0.0,WeatherDisplay:10.37,2013-03-23 03:09:00,
2013-03-22 23:14:00,25.1,16.7,30.10,ENE,78,0.0,0.0,70,0.00,CLR,,0.00,0.0,WeatherDisplay:10.37,2013-03-23 03:14:00,
2013-03-22 23:19:00,25.1,16.7,30.10,ENE,78,0.0,0.0,70,0.00,CLR,,0.00,0.0,WeatherDisplay:10.37,2013-03-23 03:19:00,
2013-03-22 23:24:00,25.1,16.7,30.10,ENE,78,0.0,0.0,70,0.00,CLR,,0.00,0.0,WeatherDisplay:10.37,2013-03-23 03:24:00,
2013-03-22 23:29:00,25.1,16.7,30.10,ENE,78,0.0,0.0,70,0.00,CLR,,0.00,0.0,WeatherDisplay:10.37,2013-03-23 03:29:00,
2013-03-22 23:34:00,25.1,16.7,30.10,ENE,78,0.0,0.0,70,0.00,CLR,,0.00,0.0,WeatherDisplay:10.37,2013-03-23 03:34:00,
2013-03-22 23:39:00,25.1,16.7,30.10,ENE,78,0.0,0.0,70,0.00,CLR,,0.00,0.0,WeatherDisplay:10.37,2013-03-23 03:39:00,
2013-03-22 23:44:00,25.1,16.7,30.10,ENE,78,0.0,0.0,70,0.00,CLR,,0.00,0.0,WeatherDisplay:10.37,2013-03-23 03:44:00,
2013-03-22 23:49:00,25.1,16.7,30.10,ENE,78,0.0,0.0,70,0.00,CLR,,0.00,0.0,WeatherDisplay:10.37,2013-03-23 03:49:00,
2013-03-22 23:54:00,25.1,16.7,30.10,ENE,78,0.0,0.0,70,0.00,CLR,,0.00,0.0,WeatherDisplay:10.37,2013-03-23 03:54:00,
2013-03-22 23:59:00,25.1,16.7,30.10,ENE,78,0.0,0.0,70,0.00,CLR,,0.00,0.0,WeatherDisplay:10.37,2013-03-23 03:59:00,